TimeCEST,TemperatureF,Dew PointF,Humidity,Sea Level PressureIn,VisibilityMPH,Wind Direction,Wind SpeedMPH,Gust SpeedMPH,PrecipitationIn,Events,Conditions,WindDirDegrees,DateUTC
12:00 AM,60.8,55.4,82,29.68,6.2,SSE,5.8,-,N/A,,Scattered Clouds,150,2012-10-25 22:00:00
12:30 AM,60.8,57.2,88,29.68,6.2,ESE,6.9,-,N/A,,Scattered Clouds,110,2012-10-25 22:30:00
1:00 AM,60.8,57.2,88,29.68,6.2,ESE,5.8,-,N/A,,Scattered Clouds,110,2012-10-25 23:00:00
1:30 AM,60.8,57.2,88,29.65,6.2,ESE,8.1,-,N/A,,Scattered Clouds,110,2012-10-25 23:30:00
2:00 AM,60.8,57.2,88,29.65,6.2,SE,8.1,-,N/A,,Mostly Cloudy,130,2012-10-26 00:00:00
5:30 AM,60.8,55.4,82,29.59,6.2,Calm,Calm,-,N/A,,Mostly Cloudy,0,2012-10-26 03:30:00
6:00 AM,60.8,57.2,88,29.59,6.2,Variable,1.2,-,N/A,,Mostly Cloudy,0,2012-10-26 04:00:00
6:30 AM,59.0,55.4,88,29.59,6.2,Calm,Calm,-,N/A,,Mostly Cloudy,0,2012-10-26 04:30:00
7:00 AM,59.0,55.4,88,29.59,6.2,Variable,2.3,-,N/A,Rain,Light Rain,0,2012-10-26 05:00:00
7:30 AM,59.0,55.4,88,29.56,6.2,Variable,1.2,-,N/A,Rain,Light Rain,0,2012-10-26 05:30:00
8:00 AM,59.0,55.4,88,29.56,5.6,SE,3.5,-,N/A,Rain,Rain,130,2012-10-26 06:00:00
8:30 AM,57.2,55.4,94,29.56,6.2,SE,3.5,-,N/A,Rain,Light Rain,130,2012-10-26 06:30:00
9:00 AM,57.2,53.6,88,29.56,6.2,SE,5.8,-,N/A,Rain,Light Rain,130,2012-10-26 07:00:00
9:30 AM,57.2,55.4,94,29.56,6.2,Calm,Calm,-,N/A,,Scattered Clouds,0,2012-10-26 07:30:00
10:00 AM,57.2,55.4,94,29.56,6.2,Calm,Calm,-,N/A,,Mostly Cloudy,0,2012-10-26 08:00:00
10:30 AM,57.2,55.4,94,29.56,6.2,Calm,Calm,-,N/A,,Mostly Cloudy,0,2012-10-26 08:30:00
11:00 AM,57.2,55.4,94,29.56,6.2,NW,1.2,-,N/A,,Mostly Cloudy,320,2012-10-26 09:00:00
11:30 AM,59.0,55.4,88,29.56,6.2,Calm,Calm,-,N/A,,Mostly Cloudy,0,2012-10-26 09:30:00
12:00 PM,59.0,55.4,88,29.56,6.2,Calm,Calm,-,N/A,,Mostly Cloudy,0,2012-10-26 10:00:00
12:30 PM,59.0,55.4,88,29.56,6.2,Calm,Calm,-,N/A,,Mostly Cloudy,0,2012-10-26 10:30:00
1:00 PM,60.8,55.4,82,29.56,6.2,ESE,1.2,-,N/A,,Mostly Cloudy,120,2012-10-26 11:00:00
1:30 PM,60.8,57.2,88,29.53,6.2,South,3.5,-,N/A,,Mostly Cloudy,180,2012-10-26 11:30:00
2:00 PM,60.8,55.4,82,29.53,6.2,Variable,1.2,-,N/A,,Mostly Cloudy,0,2012-10-26 12:00:00
3:00 PM,60.8,57.2,88,29.53,6.2,Variable,2.3,-,N/A,Rain,Light Rain,0,2012-10-26 13:00:00
3:30 PM,60.8,55.4,82,29.50,6.2,Variable,1.2,-,N/A,Rain,Light Rain,0,2012-10-26 13:30:00
4:00 PM,62.6,55.4,77,29.50,6.2,Calm,Calm,-,N/A,,Mostly Cloudy,0,2012-10-26 14:00:00
5:00 PM,60.8,55.4,82,29.50,6.2,NNW,1.2,-,N/A,,Mostly Cloudy,340,2012-10-26 15:00:00
5:30 PM,60.8,55.4,82,29.50,6.2,North,6.9,-,N/A,,Mostly Cloudy,350,2012-10-26 15:30:00
6:00 PM,60.8,55.4,82,29.50,6.2,North,3.5,-,N/A,,Mostly Cloudy,350,2012-10-26 16:00:00
6:30 PM,60.8,55.4,82,29.50,6.2,North,2.3,-,N/A,,Mostly Cloudy,350,2012-10-26 16:30:00
7:00 PM,60.8,55.4,82,29.50,6.2,Calm,Calm,-,N/A,,Mostly Cloudy,0,2012-10-26 17:00:00
7:30 PM,60.8,55.4,82,29.50,6.2,Variable,1.2,-,N/A,Rain,Light Rain,0,2012-10-26 17:30:00
8:00 PM,59.0,55.4,88,29.50,6.2,NW,1.2,-,N/A,Rain,Rain,310,2012-10-26 18:00:00
8:30 PM,59.0,57.2,94,29.50,6.2,Calm,Calm,-,N/A,Rain,Light Rain,0,2012-10-26 18:30:00
9:00 PM,59.0,57.2,94,29.50,6.2,NNW,2.3,-,N/A,Rain,Light Rain,340,2012-10-26 19:00:00
9:30 PM,59.0,55.4,88,29.53,6.2,Calm,Calm,-,N/A,Rain,Light Rain,0,2012-10-26 19:30:00
10:00 PM,59.0,55.4,88,29.53,6.2,North,1.2,-,N/A,Rain,Light Rain,360,2012-10-26 20:00:00
10:30 PM,59.0,55.4,88,29.53,6.2,Calm,Calm,-,N/A,,Mostly Cloudy,0,2012-10-26 20:30:00
11:00 PM,57.2,55.4,94,29.53,6.2,Calm,Calm,-,N/A,,Scattered Clouds,0,2012-10-26 21:00:00
11:30 PM,59.0,55.4,88,29.53,6.2,Calm,Calm,-,N/A,,Scattered Clouds,0,2012-10-26 21:30:00